Wind_Speed
42 42 42 42 42 43 43 43 44 44 44 43 44 46 47 47 47 47 46 48 48 48 48 47 46 46 46 45 45 46 47 47 47 47 47 48 48 49 50 50 51 51 53 54 55 57 59 60 61 62 63 65 66 68 69 71 71 72 74 74 75 74 73 73 71 68 65 65 65 64 62 61 61 59 58 58 58 57 57 57 55 54 55 56 56 56 57 59
42 43 43 43 43 44 45 46 46 46 46 46 47 48 49 48 48 48 48 49 48 48 48 46 45 45 45 45 45 45 46 47 47 48 48 49 50 50 51 52 53 54 55 56 58 59 61 63 64 65 66 68 69 70 71 71 72 72 71 70 69 67 66 64 60 58 55 55 55 55 53 52 52 50 49 49 49 49 49 50 49 50 52 53 54 55 57 59
43 44 44 45 45 46 47 48 48 48 48 49 49 49 49 49 49 49 49 48 46 46 46 45 44 44 45 45 46 46 46 47 48 49 49 50 51 52 53 54 55 56 57 59 60 62 64 65 67 68 69 70 70 69 68 67 66 65 62 60 58 56 55 52 49 48 46 46 47 47 46 45 44 43 43 41 42 44 44 46 48 49 51 52 53 54 56 58
44 45 45 46 47 48 49 49 50 50 49 49 49 49 50 49 48 48 47 46 44 44 44 45 45 44 45 46 47 47 47 47 49 50 51 51 52 54 55 56 58 59 60 62 63 65 66 67 68 68 67 66 65 62 59 57 55 53 50 48 47 46 44 42 40 39 39 40 41 41 41 40 39 38 38 37 39 42 44 46 48 49 51 52 54 54 55 57
44 45 46 47 48 49 49 50 50 50 50 50 49 49 49 47 46 45 44 43 43 44 44 45 45 46 46 46 47 48 48 49 50 51 52 53 54 56 57 59 60 62 63 64 65 66 66 66 64 62 59 56 53 50 47 45 43 42 40 38 38 37 36 34 34 35 35 36 37 38 38 37 36 36 36 37 37 41 45 47 48 49 50 52 53 54 54 55
44 45 46 47 48 48 48 49 49 49 48 48 47 47 45 44 43 43 43 43 43 44 45 45 46 46 47 47 48 49 49 50 52 53 54 56 57 59 60 62 63 64 65 65 64 63 60 57 53 50 47 44 42 40 38 36 35 34 33 31 32 32 31 31 32 32 33 33 34 35 36 34 34 36 37 37 37 41 45 47 47 49 50 51 52 53 53 54
41 42 43 44 45 45 45 45 45 45 44 44 43 42 41 41 42 42 43 43 43 44 45 46 47 47 47 48 49 50 50 52 53 55 57 58 60 61 62 63 64 63 61 59 56 52 48 45 42 39 37 35 33 32 31 30 30 29 28 27 28 28 28 30 30 30 30 31 32 33 33 32 32 37 39 37 37 40 43 45 46 47 49 50 51 52 53 54
37 38 39 39 40 40 40 40 40 40 39 39 39 40 40 41 42 43 43 43 44 45 46 46 47 48 49 50 50 52 53 54 55 57 58 60 61 62 62 61 58 55 51 47 43 40 37 35 33 31 29 28 27 26 26 25 26 25 24 24 24 25 26 27 27 27 28 30 32 32 31 31 33 37 40 39 40 41 42 44 46 48 50 50 51 53 54 55
33 34 35 35 35 35 35 35 35 36 37 38 39 40 41 42 42 43 43 44 45 45 46 47 48 49 51 52 53 54 55 56 58 59 60 60 59 57 54 50 46 42 39 35 33 31 29 27 26 24 23 23 22 22 22 22 23 22 22 23 23 24 25 27 27 27 29 31 33 34 33 33 35 39 42 43 44 46 46 47 49 51 53 54 55 56 57 59
29 30 31 31 32 32 33 34 35 37 38 39 40 41 42 42 43 43 44 45 46 47 48 49 50 51 53 54 55 56 57 58 57 57 54 51 48 44 40 36 33 31 29 27 25 24 22 21 21 20 20 20 19 20 21 22 23 23 23 24 26 27 28 29 30 30 32 34 36 37 37 37 38 41 44 46 47 50 51 52 53 54 56 57 59 60 61 62
28 29 30 31 32 33 34 35 36 38 39 40 41 41 42 43 44 44 45 46 47 49 50 51 52 53 54 55 56 55 54 52 49 45 41 37 33 30 28 25 24 22 21 20 19 19 19 19 19 19 20 20 20 22 24 24 26 27 27 28 29 31 33 33 33 34 36 38 39 41 42 42 43 44 47 50 51 53 55 56 58 58 60 61 62 64 64 65
29 30 31 32 33 34 36 37 38 39 40 40 41 42 43 43 45 46 47 48 49 50 51 52 53 53 53 51 49 46 42 38 34 31 27 24 22 20 19 18 17 17 16 17 17 18 19 20 20 21 22 23 25 26 27 29 30 32 33 33 32 34 37 38 38 39 40 42 43 45 47 47 47 49 51 54 56 57 59 60 62 63 64 65 66 67 68 68
29 30 31 32 34 35 36 37 38 39 40 41 41 42 44 45 46 47 48 49 50 51 51 50 48 46 42 38 34 30 27 24 22 20 18 17 16 15 15 15 15 16 16 17 18 20 21 22 23 24 25 27 28 30 31 33 34 35 37 38 38 38 41 42 43 43 45 46 48 49 52 54 54 55 56 58 60 62 64 65 67 68 68 69 70 71 72 72
29 30 31 33 34 35 36 37 38 39 40 41 42 43 44 45 46 47 47 47 46 44 42 39 35 30 26 23 20 18 17 16 15 14 13 13 13 14 14 15 16 17 18 20 21 22 24 25 26 27 29 31 32 34 36 37 38 40 41 43 44 45 46 47 48 49 49 51 52 53 56 59 61 62 63 63 65 67 69 71 72 73 73 74 74 75 76 77
29 30 31 32 33 34 35 36 37 38 39 40 41 41 42 42 41 41 39 37 34 30 27 24 21 18 16 14 12 12 11 11 11 12 12 13 14 15 16 17 18 20 21 22 24 26 27 29 31 32 34 36 37 39 40 42 43 44 46 47 48 50 51 52 53 55 55 56 57 58 60 63 66 68 70 70 71 73 74 76 77 78 78 78 79 80 81 82
27 28 29 29 30 30 31 32 32 33 33 33 34 33 33 32 30 27 25 22 19 17 15 13 11 9 8 8 9 9 10 11 12 12 13 14 15 16 18 20 22 24 26 27 29 31 32 34 35 37 38 39 41 42 43 45 46 47 48 50 52 53 55 57 58 60 61 62 63 64 66 68 70 73 75 77 78 78 78 80 81 82 82 83 84 85 86 87
22 22 23 23 23 23 23 24 23 23 23 23 22 21 20 19 17 14 12 9 8 7 6 5 5 5 7 8 10 11 11 12 13 14 15 17 19 20 22 24 26 28 30 32 33 34 35 37 38 39 41 42 44 45 46 48 50 51 52 54 56 58 58 60 62 64 66 68 68 70 73 74 75 77 79 82 83 83 82 83 84 85 86 87 88 89 90 91
14 14 14 15 15 15 15 15 14 13 12 11 10 9 7 6 4 2 1 2 3 5 6 8 8 9 9 9 10 12 13 14 16 18 20 22 24 25 27 28 30 32 33 34 36 37 38 40 41 43 44 46 48 49 50 52 54 55 57 58 60 63 64 64 65 67 70 73 74 75 78 81 82 82 84 85 87 86 85 86 87 89 90 91 92 93 95 96
5 6 7 8 8 8 8 7 6 5 5 4 4 5 6 6 7 7 8 9 10 10 11 10 10 10 11 11 13 15 17 19 20 22 23 25 27 28 30 31 33 34 36 37 39 41 42 44 45 47 48 50 52 53 54 56 57 59 60 61 63 66 69 70 70 71 72 75 79 80 84 88 88 89 89 90 90 88 88 90 91 92 94 95 96 97 99 100
5 5 5 6 6 7 8 9 10 12 13 13 13 12 12 12 12 12 11 12 12 11 11 11 12 13 14 15 17 19 20 22 22 24 25 27 29 31 32 34 35 37 39 41 43 45 46 48 50 51 53 54 56 57 59 60 62 63 65 66 67 68 72 75 75 76 76 77 81 83 87 92 93 93 93 92 92 92 92 93 94 96 96 97 98 99 101 103
13 13 13 13 14 14 15 15 16 16 17 17 16 15 14 14 13 12 12 12 12 12 13 14 15 16 17 18 18 20 22 23 24 26 28 30 32 34 36 38 40 42 44 46 48 49 51 52 54 55 56 58 59 61 62 64 65 67 68 69 71 71 73 77 78 79 80 80 81 84 88 94 96 96 95 94 93 94 94 95 97 98 99 99 99 100 102 104
22 21 21 21 21 20 20 20 20 19 18 18 17 15 15 14 13 13 14 14 13 13 14 15 16 17 18 19 20 22 24 25 28 30 32 34 36 38 40 42 44 46 48 49 51 53 54 56 57 59 60 61 63 64 65 66 67 69 70 71 73 75 75 77 80 83 84 84 84 86 90 95 98 98 98 97 97 97 97 98 99 100 102 102 102 102 103 105
27 26 25 25 24 23 22 21 20 19 18 18 17 16 15 15 14 14 14 14 14 14 15 16 17 18 20 22 24 26 28 29 32 34 36 38 40 42 44 46 47 49 51 53 54 56 57 59 60 61 63 64 65 66 67 69 70 70 72 73 75 77 78 77 79 82 85 87 87 88 90 94 97 99 100 100 99 99 100 100 99 99 101 102 102 102 102 104
27 26 25 24 23 22 21 20 19 18 18 17 16 14 13 13 13 13 13 14 15 15 16 18 20 21 23 26 28 30 32 34 35 37 39 41 43 44 46 48 50 52 54 55 56 58 59 60 61 63 64 65 67 68 69 71 72 73 73 74 75 77 78 79 78 79 82 85 87 87 88 91 94 95 98 100 99 98 99 100 100 99 98 99 100 100 101 101
26 25 24 23 22 21 20 19 18 16 15 14 13 12 11 12 12 13 13 14 16 17 19 21 23 25 27 29 31 33 35 37 38 40 42 44 45 47 49 50 51 53 55 56 57 59 60 62 63 64 65 66 67 68 68 69 70 71 72 73 74 75 76 77 78 78 78 81 84 86 86 88 90 91 93 97 98 97 96 97 98 97 97 97 98 99 99 99
24 24 23 21 20 18 17 16 15 14 13 12 11 11 12 12 13 14 15 17 19 21 22 25 27 29 31 33 35 37 38 40 42 43 45 46 47 48 50 51 53 54 56 58 59 60 61 62 63 63 63 64 64 65 66 66 67 68 70 71 73 74 75 77 78 79 79 80 83 85 87 87 89 90 91 94 97 97 97 97 97 96 96 95 96 97 98 98
22 21 20 18 17 15 15 14 13 13 12 11 10 11 12 13 15 17 19 20 22 24 26 28 31 33 35 36 38 40 41 42 43 44 45 46 48 49 51 53 55 56 57 58 58 59 59 60 60 61 61 62 63 64 65 67 68 69 71 72 74 76 78 79 81 82 83 84 86 89 90 91 91 92 94 95 97 99 100 100 101 100 99 98 98 98 99 98
19 17 16 14 13 12 12 11 11 10 10 11 12 13 15 16 18 20 22 24 26 28 30 32 33 35 36 38 39 40 41 42 43 45 47 48 50 51 52 53 54 55 55 56 56 57 58 59 60 61 63 64 65 66 68 69 70 72 74 75 77 78 80 82 83 85 86 87 89 92 94 95 94 94 96 98 100 101 102 103 104 105 104 103 103 104 104 101
15 13 12 11 10 10 10 10 11 12 12 13 15 17 18 20 22 24 27 29 31 33 34 35 36 37 37 38 39 40 41 43 45 47 48 49 50 50 50 51 52 53 54 55 57 58 60 61 63 64 65 67 68 69 70 71 72 74 75 77 78 80 81 83 85 86 87 88 91 93 96 98 97 95 97 99 101 102 103 105 107 107 108 108 108 109 109 107
11 10 10 9 10 10 10 11 12 14 15 17 19 20 22 24 27 29 31 32 33 34 35 35 36 36 37 38 39 41 43 45 46 46 46 47 47 48 50 52 54 56 58 59 61 62 63 64 65 66 66 67 69 70 71 72 73 75 77 77 77 79 81 82 84 86 86 86 88 91 94 98 98 97 97 99 100 102 103 105 107 109 109 110 110 111 111 111
9 9 9 9 10 10 11 13 15 17 18 20 22 23 26 28 29 30 32 33 33 34 34 35 36 37 39 40 42 43 44 45 45 45 46 47 48 50 52 53 55 57 58 60 62 63 64 65 65 66 66 67 67 69 72 74 75 75 77 78 77 77 78 79 81 83 83 82 83 85 89 94 96 96 97 98 100 102 103 105 106 107 109 109 110 110 110 110
8 8 9 10 11 12 14 17 18 20 22 23 25 27 29 29 29 32 33 34 34 34 35 37 38 40 42 43 43 43 43 44 44 45 46 47 47 48 49 50 50 51 52 54 57 61 63 65 66 66 67 67 67 67 70 72 75 76 77 79 80 79 78 76 76 79 79 78 79 82 86 89 92 94 94 96 98 100 102 103 104 104 105 106 108 108 109 109
9 10 12 13 15 17 19 20 22 24 25 27 29 29 28 29 31 33 33 33 34 36 38 39 41 41 42 42 42 42 42 42 43 44 45 45 46 47 48 49 50 50 51 52 54 58 61 63 64 66 67 68 69 68 68 69 71 74 76 78 80 82 80 78 77 77 77 74 73 77 82 85 87 90 91 93 96 97 99 100 101 101 101 102 102 103 105 106
12 13 15 17 19 21 22 24 26 27 28 30 29 28 29 32 33 33 34 35 37 39 40 40 41 41 40 40 41 41 42 43 43 43 44 45 46 47 47 48 49 50 51 52 53 55 59 62 63 64 66 67 68 69 68 68 69 71 74 75 78 81 82 82 81 81 81 77 72 73 78 80 82 86 89 92 94 96 97 98 99 100 100 101 100 100 100 101
15 16 18 20 22 23 25 27 28 29 30 30 28 29 32 33 33 34 36 38 39 40 40 40 39 39 39 40 41 41 42 42 43 43 43 44 44 44 45 46 47 48 49 50 51 54 60 63 65 66 67 68 69 70 70 70 70 71 72 73 75 78 81 83 83 83 86 84 78 76 79 80 82 86 89 93 94 95 97 98 99 100 100 100 99 98 97 97
17 19 21 23 24 25 27 28 29 30 30 29 29 32 34 33 34 36 38 39 39 39 38 38 38 38 39 40 40 41 41 41 42 43 43 43 43 44 44 45 46 47 49 50 51 53 57 63 66 67 69 69 69 71 72 72 72 72 72 73 74 76 78 82 83 83 86 87 84 82 83 84 86 89 92 94 95 95 97 98 99 99 99 99 99 97 96 95
20 22 23 24 26 27 28 29 31 30 30 30 33 34 33 34 37 38 39 39 39 38 37 37 38 38 39 39 40 40 40 41 42 42 43 43 43 44 45 47 48 49 51 51 53 53 55 61 66 67 67 68 67 68 70 71 72 72 71 72 73 74 76 80 84 87 89 90 88 87 86 87 90 94 95 96 97 97 98 99 98 98 98 98 97 95 93 92
22 23 24 26 28 29 30 31 31 30 31 34 34 33 35 37 39 40 40 38 37 37 37 37 38 38 38 38 39 39 40 41 41 41 42 43 44 45 46 48 50 51 53 53 55 56 56 60 66 68 67 66 66 66 67 68 69 70 71 73 75 76 77 78 83 89 92 94 94 92 90 89 93 97 97 97 98 98 97 96 96 95 94 92 90 88 86 84
24 25 27 28 29 30 31 31 31 32 34 33 33 35 38 40 40 39 38 36 36 36 37 37 37 37 37 37 37 38 39 40 40 41 42 44 46 48 49 51 53 54 56 57 59 61 61 61 65 69 69 67 67 67 66 65 67 69 70 71 74 77 78 79 81 87 92 96 98 97 94 91 94 97 97 97 97 97 96 94 93 92 89 86 84 83 81 79
26 28 29 30 31 31 31 31 33 34 33 33 36 39 40 40 39 37 36 35 35 36 36 36 36 36 37 37 38 39 40 41 42 43 45 46 48 51 52 54 57 58 60 62 64 65 66 66 66 69 70 69 68 69 69 69 70 70 70 71 72 74 77 78 78 81 88 93 98 100 96 92 95 99 99 98 98 97 97 95 93 93 92 89 86 84 81 79
28 29 30 31 32 31 31 33 34 33 34 37 40 41 40 39 37 35 35 35 35 35 35 35 35 36 37 38 40 41 41 43 44 46 48 50 52 54 56 57 60 62 64 66 68 69 69 69 69 70 70 70 70 71 72 72 73 73 73 74 75 76 78 80 80 80 84 89 95 99 96 94 98 102 101 99 98 99 100 98 96 95 94 91 88 86 83 81
29 30 31 31 31 31 33 34 35 36 39 41 42 41 39 37 35 34 34 34 34 35 35 35 36 37 39 40 42 43 44 46 48 50 52 54 56 57 59 61 63 65 67 69 71 72 71 71 71 72 72 73 74 75 74 74 74 74 75 76 77 78 79 81 84 84 84 88 93 96 94 94 100 104 104 103 102 102 101 99 96 94 92 90 88 85 82 80
30 30 30 30 31 32 34 35 37 39 41 42 41 39 37 34 34 33 34 34 34 34 35 36 37 39 40 42 43 45 48 50 52 54 56 58 60 61 63 65 67 69 71 73 74 74 74 73 73 72 71 70 72 73 74 74 74 73 74 74 75 77 79 82 85 88 89 91 96 97 92 92 99 104 105 105 105 103 101 99 96 93 89 86 83 80 78 76
30 30 30 31 32 34 36 37 39 41 42 42 40 37 35 33 33 33 34 34 34 34 36 38 39 40 42 43 45 47 50 53 55 58 60 62 63 64 66 68 70 72 73 74 75 75 76 76 78 78 75 71 70 72 73 73 75 76 77 78 79 81 83 86 89 92 94 95 98 101 98 94 98 101 101 102 101 99 96 95 93 89 85 80 76 74 74 73
29 29 30 32 33 35 37 39 41 42 42 41 38 35 33 33 33 34 34 34 35 36 38 39 40 42 44 46 49 51 54 56 59 61 63 65 66 67 69 70 72 73 74 75 75 75 77 78 80 84 85 82 81 82 82 81 81 82 83 84 85 86 88 91 93 96 98 97 98 102 103 99 97 98 98 97 95 92 90 88 86 83 80 75 71 69 70 69
28 29 31 33 34 36 39 41 42 42 41 38 35 33 33 33 34 34 34 35 37 38 39 40 42 45 47 50 53 57 59 61 63 65 67 68 69 70 71 72 73 74 74 74 74 75 77 78 80 84 86 86 86 88 88 87 87 86 87 88 89 90 92 95 97 100 102 101 99 101 104 102 98 96 95 93 90 87 86 84 80 76 73 69 66 65 66 66
28 30 31 33 36 38 40 42 42 40 38 35 33 33 33 34 34 35 36 37 38 39 40 42 45 47 50 54 57 61 64 66 67 68 69 70 72 73 73 74 74 74 74 75 75 76 78 79 79 82 84 84 86 88 88 87 88 88 89 90 91 92 94 96 99 102 105 105 102 100 102 103 99 94 92 91 88 85 83 80 75 70 66 63 62 61 62 62
29 31 32 35 37 40 41 41 40 38 35 34 33 33 34 34 35 36 37 38 39 41 42 45 47 50 53 56 59 62 65 67 69 69 71 72 74 76 76 76 76 75 75 75 76 78 80 81 80 81 84 85 86 89 89 87 88 89 90 91 92 93 94 97 100 103 106 105 104 101 99 100 99 94 91 90 88 84 82 77 71 65 61 59 59 58 58 58
30 32 35 37 39 40 41 40 38 35 33 33 33 33 34 34 36 37 38 39 41 43 45 48 50 53 56 59 61 62 64 65 67 69 72 74 76 78 78 77 77 76 76 77 79 81 82 83 81 81 84 86 87 89 90 88 88 90 91 91 91 91 94 96 98 101 102 101 101 101 98 97 97 95 91 88 86 84 81 75 67 62 59 57 57 56 56 56
31 34 36 38 39 41 40 38 35 33 33 33 33 33 34 36 37 39 40 41 43 45 48 51 53 56 59 61 62 63 65 66 68 71 74 77 79 79 79 78 78 77 78 79 82 83 84 84 82 81 83 85 86 89 91 89 89 90 91 91 90 89 91 94 97 100 99 97 97 98 97 94 93 92 90 87 85 83 81 75 66 61 58 56 55 55 55 55
33 35 37 39 40 40 38 35 33 32 32 32 33 34 36 37 39 40 42 44 46 49 52 54 56 58 60 62 64 66 69 71 73 76 78 80 81 81 81 80 79 79 79 81 83 84 84 84 83 81 81 83 85 89 90 89 89 91 92 90 89 88 88 92 97 101 100 98 97 97 97 95 94 92 89 86 84 82 79 73 65 60 58 55 53 52 52 54
34 36 37 39 40 38 35 32 32 32 32 32 34 36 37 39 41 43 44 46 49 51 53 54 57 59 62 64 68 71 73 76 77 80 82 83 84 84 83 82 81 80 81 83 85 86 86 86 86 85 84 84 85 88 91 91 90 90 91 91 90 89 88 90 97 102 102 102 101 99 97 95 92 90 86 82 80 79 77 70 63 58 55 52 50 48 48 51
Wind_Direction
238 240 244 246 248 250 252 255 257 259 261 263 265 266 267 268 270 272 275 277 277 278 279 280 281 282 283 285 286 287 287 288 288 289 289 289 289 288 288 287 286 285 284 284 283 283 283 283 283 283 283 284 284 284 284 283 283 283 282 282 282 282 281 281 281 281 280 279 278 277 277 276 275 275 273 272 271 270 270 270 269 268 268 268 268 268 268 268
239 242 245 247 250 252 254 256 258 259 261 263 264 265 267 270 272 275 276 277 278 280 281 282 284 285 286 287 288 288 289 289 290 290 290 289 289 289 288 287 287 286 285 285 285 285 285 285 285 286 286 285 285 285 284 284 283 283 282 282 282 282 281 282 282 282 281 280 279 278 277 276 275 274 272 271 271 269 269 269 268 266 266 266 266 266 266 267
241 243 246 248 250 252 254 256 258 260 261 262 264 266 269 271 273 275 276 277 279 280 282 284 286 287 289 289 289 290 290 290 290 289 289 289 288 288 288 287 287 286 286 286 286 287 287 287 287 287 287 287 286 285 285 284 283 282 282 282 282 282 282 283 283 282 281 280 279 278 277 275 275 273 271 271 270 270 268 268 267 265 265 265 265 265 267 268
242 244 246 248 250 252 253 255 257 259 261 263 266 268 270 272 273 274 275 277 279 281 284 286 287 289 289 290 290 290 289 289 288 288 288 288 288 288 288 287 288 288 288 288 289 289 289 289 289 289 288 288 287 286 285 284 283 283 283 282 282 282 283 283 283 282 281 279 278 277 276 275 273 272 271 269 269 270 268 267 266 267 267 268 267 267 267 268
244 246 247 249 250 252 254 256 258 260 262 264 266 268 270 272 273 274 275 278 281 283 285 287 289 289 289 289 289 289 289 288 288 287 288 288 288 288 288 289 289 289 290 290 290 290 290 290 290 289 289 288 287 286 285 284 283 283 283 283 283 283 283 283 282 280 279 277 276 276 275 275 274 273 270 269 269 269 269 269 269 269 269 269 270 269 268 269
245 247 248 250 251 253 255 256 258 260 262 264 265 267 269 270 272 275 278 281 283 285 287 288 288 287 287 287 287 287 288 287 288 288 288 288 289 289 289 290 290 291 291 291 291 291 291 290 290 289 288 287 286 285 285 284 284 284 284 284 284 284 284 282 279 278 278 277 276 276 277 278 279 277 274 272 271 270 271 272 273 272 272 271 271 271 271 270
245 247 249 250 252 254 255 257 259 261 262 263 265 267 269 271 274 278 281 283 285 286 286 285 285 285 286 286 286 287 287 287 287 287 288 289 289 290 290 290 291 291 291 291 291 290 290 289 288 287 287 286 286 286 286 286 286 286 286 286 285 285 284 282 281 281 281 281 280 281 283 285 284 282 281 280 277 274 274 275 275 274 274 273 273 273 273 272
246 248 250 252 254 255 256 258 260 261 262 264 267 270 273 276 278 281 283 284 284 283 283 283 284 285 286 286 286 286 286 286 287 287 288 288 289 290 290 290 290 290 290 289 289 288 288 287 287 288 288 289 290 290 290 291 291 291 292 290 289 289 288 288 289 290 289 288 287 287 288 288 286 283 283 283 281 278 277 276 276 275 274 273 273 272 272 271
248 251 252 254 255 256 258 259 260 262 265 268 271 273 276 278 280 281 282 282 281 281 282 283 284 285 285 285 286 286 286 287 288 288 288 289 289 289 289 289 289 288 288 287 287 287 287 289 291 292 294 295 297 297 297 297 296 297 297 294 293 291 290 291 291 291 289 288 287 286 286 284 282 281 281 281 280 278 276 275 274 273 273 273 272 271 270 270
247 249 251 253 255 256 258 259 262 265 268 271 273 275 277 278 279 279 279 280 281 282 283 284 284 284 285 285 286 287 287 288 288 289 289 289 289 289 289 289 289 289 289 289 290 291 293 295 297 298 299 300 300 298 298 296 294 293 291 289 289 287 286 286 286 286 285 284 284 283 282 280 278 278 278 278 277 276 275 274 273 272 272 272 272 271 271 270
245 247 250 253 256 258 261 263 265 268 270 272 273 275 276 277 277 278 280 281 282 283 283 284 284 285 285 286 287 287 288 289 289 289 290 290 291 291 291 291 292 293 294 296 297 297 298 298 298 298 297 296 294 292 292 292 291 289 288 288 288 288 287 286 286 285 284 284 284 283 282 280 279 278 277 276 276 275 274 274 273 272 271 271 271 271 271 271
247 250 254 257 260 263 265 266 268 269 271 272 273 274 276 277 278 279 280 281 282 282 283 283 284 285 286 287 288 288 289 290 291 291 292 293 294 295 295 297 297 299 300 301 300 299 299 298 298 296 295 294 293 292 292 292 292 291 291 291 290 289 289 289 288 287 286 286 285 284 283 281 279 277 276 276 275 275 274 273 273 272 272 271 271 271 271 271
254 257 259 261 263 265 266 267 269 270 271 273 274 276 277 278 279 279 280 280 281 281 282 283 284 285 286 288 289 290 292 293 294 294 296 297 298 300 302 303 302 303 302 301 300 300 300 299 298 297 296 295 295 295 295 294 294 294 294 295 294 292 290 290 290 289 289 288 287 287 286 285 283 280 278 278 277 276 276 275 274 273 273 273 273 273 273 273
258 260 261 262 263 265 267 269 271 272 274 275 276 276 277 277 278 278 279 279 280 281 282 283 284 285 287 289 292 295 296 298 300 302 306 308 311 312 311 309 308 306 304 302 300 300 299 298 298 297 297 297 298 298 298 298 298 298 298 297 297 296 294 293 292 291 289 288 287 286 285 284 283 282 280 278 277 277 276 276 275 275 275 275 275 275 276 276
260 261 263 264 267 268 270 272 273 274 274 275 275 275 275 275 276 276 277 278 279 280 281 282 285 288 292 296 300 304 308 314 318 321 323 322 321 318 314 311 308 305 303 302 300 301 302 302 302 302 302 302 302 302 301 300 299 299 298 296 295 294 293 291 290 289 287 285 283 282 281 280 279 279 279 277 276 275 275 275 275 276 276 277 277 277 277 277
262 264 266 267 268 269 270 271 272 272 272 272 272 272 272 272 272 273 274 276 278 281 285 288 292 298 308 319 327 330 334 335 333 330 327 323 319 316 313 310 309 308 307 307 306 307 306 306 305 303 302 301 300 298 297 296 294 293 291 290 289 288 288 287 286 286 285 283 282 281 279 278 277 276 276 276 275 274 274 275 275 276 276 277 277 277 277 277
264 265 266 266 267 267 267 267 267 267 267 267 267 267 266 266 267 268 272 278 286 294 306 322 335 349 359 358 352 347 343 337 332 329 325 322 320 318 316 313 312 311 310 308 307 306 304 302 300 298 296 294 293 292 291 290 289 288 288 287 287 286 285 285 284 284 283 282 281 280 279 277 275 274 274 274 274 275 275 275 276 277 277 277 276 276 275 275
261 261 261 260 259 257 256 255 254 254 254 256 255 255 254 256 262 276 319 28 32 29 29 25 20 19 14 3 350 344 339 334 332 329 325 324 321 318 316 313 310 308 306 304 302 300 298 296 294 293 292 291 290 290 289 288 288 288 287 287 287 287 285 284 283 283 283 283 282 281 281 279 277 275 274 274 275 276 276 277 277 277 277 277 277 276 276 275
237 241 240 238 235 229 223 213 201 182 159 140 130 119 105 94 83 76 70 63 54 43 36 28 20 14 6 353 344 341 337 333 330 327 323 321 317 313 310 307 305 303 301 299 297 296 295 294 293 292 292 291 291 291 290 289 289 288 288 287 287 287 287 286 285 284 284 285 286 285 284 282 281 279 278 278 278 279 279 278 278 277 277 277 277 277 276 276
136 147 154 157 155 151 145 138 129 120 112 105 100 95 89 83 76 70 63 56 49 39 28 17 7 1 354 346 341 337 332 327 323 320 316 313 310 307 305 303 301 299 298 297 297 296 296 295 295 294 294 293 293 292 292 292 291 290 290 290 289 289 289 288 288 287 286 286 286 286 286 284 283 282 281 281 282 282 282 281 279 278 278 277 277 277 277 277
110 112 113 114 114 113 110 107 104 101 98 93 88 83 78 73 67 60 53 46 35 23 12 4 357 350 343 337 333 328 323 319 315 312 309 307 306 304 302 301 300 299 299 298 298 297 297 296 296 296 295 295 294 294 294 293 293 293 292 292 291 290 290 290 290 289 288 287 286 286 286 285 284 283 283 283 283 283 282 281 281 280 280 279 279 278 278 278
102 102 101 100 98 96 95 93 90 88 86 83 78 71 65 58 50 42 35 26 16 8 359 351 344 338 331 324 320 318 315 312 310 308 307 306 305 304 303 302 302 301 301 300 300 299 299 299 299 298 298 297 297 296 296 295 295 295 294 293 293 292 291 291 291 290 289 288 287 286 285 285 285 285 285 285 284 283 282 281 280 280 280 280 279 279 278 278
98 97 95 92 91 90 88 86 84 80 76 71 64 56 48 41 34 29 22 10 360 352 343 336 330 325 321 316 314 313 312 310 309 308 308 307 306 306 306 305 305 305 304 304 303 303 302 301 300 300 300 299 299 298 297 297 296 295 294 293 292 291 290 289 289 289 289 288 287 286 285 285 285 286 286 285 285 284 283 282 281 280 280 280 279 279 278 278
95 93 90 88 86 84 80 77 74 69 64 59 53 45 37 29 20 13 5 355 346 337 328 323 320 317 316 314 314 314 313 312 311 310 310 310 309 309 309 308 308 307 306 305 304 303 302 301 301 301 300 300 299 299 298 297 297 296 295 293 292 292 291 290 288 287 287 288 287 287 286 286 286 287 287 287 286 286 285 285 284 283 282 281 280 279 278 277
91 88 85 82 78 74 71 68 64 60 56 50 41 32 20 11 3 353 344 337 332 324 319 318 318 317 318 317 317 317 316 316 315 314 314 313 313 312 311 310 308 307 305 304 303 303 303 302 302 301 301 300 299 299 298 297 297 296 295 294 293 292 292 292 291 290 289 288 288 288 288 287 288 288 288 288 288 287 286 286 285 285 284 283 281 280 278 277
85 82 79 76 72 68 64 59 54 48 42 34 23 13 1 351 344 337 330 327 325 323 322 323 323 323 323 322 321 321 320 319 318 318 317 316 314 313 311 309 308 307 306 305 305 304 304 303 303 302 301 300 300 299 298 297 297 296 296 296 296 296 296 296 295 294 294 293 293 292 292 292 292 292 291 291 291 291 291 290 289 288 287 286 284 283 281 280
78 75 73 70 66 61 54 47 40 33 25 14 3 352 344 337 333 331 329 328 328 328 328 329 328 328 326 325 324 323 322 321 320 319 317 315 313 312 311 310 309 308 307 306 306 305 305 304 303 303 302 302 301 301 302 302 302 302 302 302 302 301 301 300 299 299 298 298 297 296 295 295 295 294 294 294 293 293 294 294 293 292 291 290 289 288 286 285
73 70 67 63 57 50 43 33 24 14 4 354 347 341 338 336 334 333 333 333 333 333 332 331 329 328 327 326 325 325 323 321 320 318 316 315 314 313 312 311 310 310 309 308 308 307 307 307 307 307 308 308 308 308 307 307 306 306 305 305 304 303 302 301 300 299 299 298 296 296 295 295 295 295 294 293 292 292 293 293 292 292 292 292 292 291 290 290
70 66 60 52 43 33 23 13 3 356 351 346 343 342 340 339 338 338 339 338 337 335 333 332 330 330 329 328 326 324 322 321 320 319 318 317 316 314 313 312 312 311 311 311 311 312 312 313 313 314 313 313 312 310 309 308 307 307 306 305 304 302 301 300 300 299 298 297 295 295 295 294 295 294 293 291 290 290 290 290 290 291 291 291 291 291 291 292
61 54 44 33 22 14 5 357 353 351 348 346 346 344 342 342 343 343 341 339 336 334 333 332 331 331 329 327 325 324 323 322 321 319 318 317 316 316 317 317 318 318 318 319 319 319 318 317 316 315 313 312 311 309 308 307 306 305 304 303 301 300 299 299 298 297 296 295 294 293 294 294 294 293 291 289 288 287 286 286 287 287 288 289 289 289 290 290
45 35 26 16 7 360 353 352 351 349 349 348 346 344 345 345 343 341 339 337 336 335 334 333 332 330 329 327 326 325 324 323 322 321 322 323 324 325 326 326 326 326 325 324 321 319 317 315 313 311 310 309 308 307 306 305 304 303 302 300 298 296 296 296 295 294 293 292 291 290 290 290 290 290 289 287 285 285 284 284 284 284 285 286 287 288 289 289
28 18 9 3 356 353 353 352 351 350 349 347 346 347 345 341 340 341 340 338 336 336 335 334 332 331 330 329 327 326 326 326 327 329 331 332 332 330 328 326 325 323 321 319 316 315 314 312 311 310 309 308 306 305 304 304 303 301 299 298 296 294 292 291 289 289 288 288 288 288 288 288 288 288 287 286 285 285 284 284 284 284 284 285 285 286 287 288
10 4 360 356 354 354 353 351 351 350 348 347 347 344 340 340 343 343 340 337 337 337 336 334 333 332 330 329 329 330 331 332 333 334 334 332 330 327 326 325 323 321 318 316 315 315 313 312 311 310 308 306 304 303 302 300 299 298 297 296 296 295 293 292 289 288 286 286 286 286 286 286 286 287 287 286 286 286 286 286 287 287 287 286 287 287 287 287
0 358 355 354 354 352 350 351 351 349 348 348 343 338 342 347 346 341 338 339 339 337 336 335 334 333 332 333 334 336 336 337 336 335 333 331 329 328 326 324 321 320 319 318 318 318 315 312 311 310 308 307 307 306 306 304 302 301 301 301 301 301 300 300 298 297 295 293 292 291 291 290 290 290 290 289 289 290 290 291 291 291 291 291 290 290 290 289
356 355 354 354 351 349 351 350 348 348 347 342 337 343 351 350 343 339 340 340 339 338 337 336 336 336 336 338 339 340 339 338 336 334 332 330 328 326 323 321 319 319 319 320 321 323 322 319 316 316 316 315 316 316 315 314 311 310 309 308 307 306 305 304 304 303 302 301 301 300 298 298 296 296 294 293 294 294 294 294 294 294 294 294 294 293 293 292
354 353 352 350 348 349 349 347 347 348 343 337 344 354 352 345 341 341 341 340 340 340 339 338 338 339 341 342 341 340 339 337 335 333 331 329 326 324 323 322 321 321 321 322 323 326 328 327 324 324 324 323 324 323 321 318 316 315 314 311 309 308 307 307 306 305 304 303 303 302 301 301 300 299 298 297 297 297 297 297 297 298 298 297 297 296 296 295
352 350 349 347 348 348 346 347 349 344 338 346 356 354 345 341 342 342 342 342 342 342 341 342 343 344 344 343 342 341 339 336 334 332 330 328 326 326 326 325 325 325 325 326 327 329 332 333 329 328 327 327 327 325 323 321 320 319 316 313 311 310 310 309 308 307 305 304 304 304 304 304 303 302 302 302 301 301 301 301 301 301 300 299 298 297 296 294
348 346 346 347 348 347 347 350 346 340 348 357 355 345 341 343 344 343 344 344 344 344 345 345 346 345 344 344 343 340 337 334 332 331 330 329 329 329 329 329 329 329 329 330 332 332 334 335 333 330 329 328 328 326 326 325 323 321 319 317 315 313 311 311 310 308 307 307 307 306 307 308 306 305 305 305 304 304 304 304 303 302 300 299 298 297 295 294
345 345 347 348 348 348 349 347 343 349 358 354 344 342 345 346 345 346 346 346 347 347 347 347 346 345 344 344 341 337 335 333 332 331 332 332 333 333 333 334 334 334 334 335 336 336 336 337 335 333 332 331 329 327 326 325 323 322 321 320 319 317 315 314 313 312 311 310 309 309 310 310 308 307 307 307 307 308 308 307 306 306 305 303 302 300 300 300
345 346 348 348 348 349 349 347 352 357 353 344 343 347 347 347 348 349 349 349 350 349 349 348 346 346 344 341 338 336 336 335 334 335 336 337 338 338 338 339 338 338 339 339 340 340 339 338 337 336 335 333 331 329 327 327 325 324 323 321 319 318 316 315 315 314 312 311 310 309 312 313 310 310 310 311 312 313 313 313 312 312 310 309 307 306 307 307
345 348 349 349 349 350 350 353 357 353 345 345 349 349 348 350 351 351 351 352 351 350 349 348 347 346 343 341 340 339 339 338 339 340 340 340 341 341 341 342 342 342 342 342 342 341 341 340 339 338 337 335 333 332 332 332 330 328 326 323 321 319 318 316 314 313 311 310 309 310 314 317 315 314 315 316 317 318 317 316 315 313 312 310 310 311 311 309
347 350 349 350 351 352 353 356 353 348 347 350 350 349 351 352 352 352 353 353 352 351 349 349 348 346 344 344 343 342 342 342 343 343 343 343 344 344 344 344 345 345 345 344 343 342 342 341 341 341 341 340 338 336 335 334 331 329 327 326 324 321 319 317 315 313 312 312 312 313 318 320 318 317 318 320 320 319 317 316 315 313 312 312 313 313 310 306
349 350 350 352 353 354 355 354 350 348 350 350 349 351 353 353 353 355 355 354 353 351 350 350 349 347 347 346 344 344 345 345 345 345 346 346 346 347 347 347 347 347 347 346 345 344 343 342 342 341 341 343 342 338 336 335 333 330 328 327 325 324 323 321 319 318 318 318 317 318 321 323 320 320 320 320 320 319 318 317 315 313 314 314 314 312 308 305
350 351 353 355 355 355 354 351 349 350 350 349 351 353 354 354 356 357 356 355 353 352 351 351 350 349 348 346 345 346 347 347 347 348 348 348 348 349 349 349 349 349 348 347 346 346 345 345 344 342 340 340 340 337 337 338 337 336 335 334 332 331 330 328 325 323 322 321 321 321 324 325 322 320 320 319 318 318 317 315 313 313 315 316 315 312 308 306
351 354 357 357 355 354 352 349 349 350 350 351 353 354 355 357 358 358 357 355 354 353 353 352 351 350 348 347 348 348 349 349 350 349 349 350 350 350 350 350 350 349 348 348 348 348 348 348 347 345 343 342 342 340 340 341 341 341 340 339 338 337 335 331 328 326 323 323 325 323 323 325 323 321 320 319 318 317 316 314 313 316 318 318 315 311 308 307
355 359 358 356 354 352 350 349 350 350 351 352 354 355 357 358 359 359 358 356 355 355 354 353 351 349 349 350 351 351 352 352 351 351 351 351 351 352 352 351 351 350 349 349 350 350 350 350 349 347 345 346 346 345 344 344 344 343 342 341 340 339 337 333 330 327 324 325 327 325 323 324 324 323 322 319 319 319 317 315 317 320 321 319 315 311 309 308
359 360 357 354 353 351 350 350 350 351 352 354 355 357 359 0 1 360 358 357 356 356 355 353 350 350 352 354 355 355 354 353 353 353 353 353 354 354 354 353 352 351 351 351 352 352 352 352 352 349 347 347 348 347 346 346 345 344 343 342 342 341 338 333 330 327 325 326 327 326 325 324 325 325 323 322 322 321 319 318 321 324 322 318 314 311 310 309
360 357 353 353 352 351 350 351 351 352 354 355 357 359 1 2 1 359 358 358 357 356 354 352 352 354 356 356 357 356 355 355 355 356 356 357 356 356 355 355 354 353 353 354 354 354 354 353 353 352 349 349 349 348 347 347 345 344 344 343 343 342 337 333 330 327 326 327 327 327 327 326 326 327 327 326 325 323 320 321 324 326 323 318 315 313 312 310
357 353 353 353 351 350 351 352 352 354 355 357 359 1 2 1 0 359 359 359 357 355 354 355 357 358 358 358 358 357 357 357 357 358 358 358 358 357 356 356 356 355 355 356 356 356 355 354 354 354 352 350 350 348 347 347 346 344 343 343 343 341 337 334 330 326 326 328 328 328 329 329 329 329 328 328 327 324 321 323 327 328 324 320 318 317 315 313
354 353 353 352 351 351 352 353 354 355 357 359 360 1 2 1 1 1 0 359 358 357 358 360 0 360 360 359 358 358 357 357 358 359 359 359 358 358 357 357 357 357 357 357 357 357 356 355 355 355 354 351 350 348 347 347 345 344 343 342 342 340 337 334 329 326 327 329 330 330 331 331 331 330 330 330 328 325 323 325 330 330 326 324 323 321 318 316
353 354 353 351 351 353 353 354 355 356 358 360 1 2 3 3 3 2 1 0 1 1 2 2 2 2 2 360 359 358 359 359 360 360 359 359 359 359 359 359 359 359 359 359 358 357 356 355 355 355 355 353 351 349 347 346 346 345 342 340 340 338 336 334 331 328 330 332 333 334 334 335 335 332 332 332 330 326 324 327 331 330 327 327 326 323 320 317
354 353 352 351 352 354 354 355 356 358 359 360 1 3 4 4 4 3 3 3 4 4 4 4 4 4 2 0 360 0 0 0 0 360 359 359 360 360 360 0 1 1 0 360 359 357 356 355 355 355 355 354 352 350 348 346 346 345 341 339 339 336 335 337 335 332 333 335 336 337 337 337 335 332 332 333 331 326 324 327 331 331 328 329 327 325 322 318
Height
10707 10709 10710 10712 10713 10715 10716 10717 10717 10718 10719 10719 10719 10719 10719 10719 10719 10719 10719 10718 10717 10717 10716 10717 10717 10716 10716 10715 10714 10713 10711 10710 10709 10708 10707 10706 10705 10704 10703 10702 10701 10700 10698 10696 10694 10692 10690 10688 10686 10685 10683 10680 10677 10675 10672 10669 10667 10663 10660 10657 10654 10653 10650 10648 10648 10646 10644 10640 10636 10635 10634 10632 10629 10631 10630 10627 10627 10627 10626 10625 10626 10625 10621 10621 10621 10620 10617 10614
10706 10707 10708 10710 10712 10713 10714 10714 10715 10716 10717 10717 10717 10716 10716 10716 10716 10716 10715 10715 10714 10714 10713 10713 10714 10712 10712 10711 10710 10709 10708 10706 10705 10704 10703 10701 10700 10699 10698 10697 10695 10694 10692 10690 10688 10686 10683 10681 10680 10678 10675 10673 10670 10668 10664 10661 10659 10655 10652 10650 10647 10646 10643 10641 10641 10638 10636 10632 10628 10628 10627 10625 10624 10624 10623 10622 10621 10621 10621 10619 10619 10618 10615 10615 10614 10613 10611 10608
10703 10705 10707 10708 10710 10711 10712 10712 10713 10713 10714 10714 10714 10713 10714 10714 10713 10713 10712 10712 10712 10711 10710 10710 10710 10709 10708 10707 10706 10705 10704 10702 10701 10699 10698 10697 10696 10694 10693 10691 10690 10688 10686 10684 10682 10679 10677 10675 10672 10670 10668 10665 10662 10660 10657 10653 10651 10648 10646 10644 10641 10639 10637 10636 10635 10631 10630 10626 10623 10622 10621 10620 10620 10619 10618 10618 10616 10615 10615 10613 10611 10610 10608 10608 10608 10607 10605 10602
10701 10703 10705 10706 10707 10708 10709 10710 10710 10711 10711 10711 10711 10711 10711 10711 10710 10710 10709 10709 10709 10709 10708 10707 10706 10706 10705 10703 10702 10701 10700 10698 10696 10695 10693 10692 10691 10689 10687 10685 10684 10682 10680 10678 10676 10673 10670 10667 10665 10662 10660 10657 10654 10652 10649 10646 10644 10641 10640 10638 10635 10633 10632 10631 10628 10626 10624 10621 10619 10617 10616 10616 10616 10615 10614 10614 10613 10610 10608 10606 10605 10604 10604 10602 10601 10601 10600 10597
10700 10701 10703 10704 10704 10705 10706 10707 10708 10708 10709 10709 10708 10708 10708 10707 10707 10707 10707 10707 10707 10706 10705 10704 10703 10702 10701 10699 10698 10696 10695 10694 10692 10690 10689 10687 10686 10684 10682 10680 10678 10676 10674 10672 10669 10666 10663 10660 10657 10655 10652 10649 10647 10644 10642 10640 10638 10635 10635 10633 10630 10628 10627 10626 10624 10621 10620 10618 10615 10613 10612 10613 10612 10611 10610 10610 10610 10606 10601 10600 10601 10600 10599 10597 10594 10593 10593 10592
10698 10699 10700 10701 10702 10703 10704 10705 10705 10706 10706 10706 10705 10705 10705 10705 10704 10704 10704 10704 10704 10703 10701 10700 10699 10698 10697 10696 10694 10693 10692 10690 10688 10686 10684 10682 10680 10678 10676 10674 10672 10670 10668 10665 10662 10659 10656 10653 10651 10648 10646 10643 10641 10639 10637 10634 10633 10631 10630 10629 10626 10624 10623 10622 10620 10618 10617 10615 10612 10610 10610 10611 10610 10607 10605 10606 10606 10602 10597 10596 10596 10595 10593 10591 10589 10587 10587 10586
10696 10697 10698 10699 10700 10701 10701 10702 10703 10703 10703 10703 10703 10703 10703 10703 10702 10702 10702 10701 10701 10699 10698 10696 10694 10693 10693 10692 10690 10689 10688 10686 10684 10682 10680 10677 10675 10673 10671 10669 10667 10664 10661 10659 10656 10653 10651 10648 10646 10643 10641 10639 10637 10635 10633 10631 10629 10628 10627 10626 10624 10622 10621 10619 10618 10617 10615 10612 10609 10608 10608 10609 10607 10602 10600 10601 10601 10598 10595 10593 10592 10589 10587 10586 10584 10582 10581 10579
10694 10695 10696 10697 10697 10698 10699 10700 10700 10700 10700 10700 10700 10700 10700 10700 10699 10699 10699 10698 10697 10695 10693 10692 10690 10690 10689 10688 10686 10685 10683 10681 10680 10678 10676 10673 10671 10668 10666 10663 10661 10659 10656 10654 10651 10649 10647 10644 10642 10640 10638 10636 10634 10632 10630 10628 10627 10626 10625 10624 10623 10621 10619 10617 10616 10615 10613 10610 10607 10606 10607 10606 10604 10599 10596 10596 10595 10592 10591 10588 10586 10583 10580 10579 10578 10576 10574 10572
10692 10693 10694 10694 10695 10696 10697 10697 10697 10697 10697 10698 10697 10697 10697 10696 10696 10695 10695 10693 10692 10691 10689 10688 10687 10686 10684 10683 10682 10680 10678 10677 10675 10673 10671 10668 10666 10664 10661 10659 10657 10654 10652 10650 10648 10646 10644 10642 10640 10638 10636 10634 10632 10630 10629 10627 10626 10625 10624 10622 10621 10620 10617 10615 10614 10613 10610 10607 10605 10603 10604 10603 10601 10597 10592 10591 10589 10585 10584 10582 10579 10577 10574 10572 10570 10569 10567 10565
10690 10691 10691 10692 10692 10693 10694 10695 10695 10694 10694 10694 10694 10693 10693 10693 10692 10691 10690 10689 10688 10687 10686 10685 10683 10682 10680 10679 10677 10675 10673 10672 10670 10668 10666 10663 10661 10659 10657 10655 10654 10652 10650 10648 10646 10644 10643 10641 10639 10637 10635 10633 10631 10629 10627 10626 10625 10624 10623 10621 10619 10617 10615 10613 10611 10610 10607 10604 10602 10599 10599 10599 10597 10593 10588 10585 10583 10579 10576 10574 10572 10570 10567 10564 10562 10560 10559 10557
10687 10688 10689 10689 10690 10690 10691 10691 10692 10691 10691 10691 10690 10690 10689 10689 10688 10687 10686 10685 10684 10683 10682 10681 10679 10677 10676 10674 10673 10671 10669 10667 10665 10663 10662 10660 10658 10657 10655 10654 10652 10650 10649 10647 10645 10643 10641 10639 10637 10636 10633 10632 10630 10628 10626 10625 10623 10621 10620 10619 10617 10613 10610 10610 10609 10606 10604 10601 10598 10595 10594 10594 10592 10589 10584 10580 10577 10573 10570 10567 10564 10562 10560 10557 10555 10552 10551 10550
10685 10685 10686 10686 10687 10687 10687 10687 10688 10687 10687 10687 10687 10686 10685 10685 10684 10683 10683 10682 10681 10679 10678 10676 10675 10673 10672 10670 10669 10667 10665 10664 10662 10661 10659 10658 10657 10655 10654 10652 10651 10649 10647 10646 10644 10642 10640 10638 10636 10634 10632 10630 10628 10627 10625 10623 10621 10618 10616 10616 10615 10612 10607 10606 10605 10603 10600 10597 10595 10592 10588 10588 10587 10583 10579 10574 10570 10566 10563 10560 10556 10553 10551 10549 10547 10545 10543 10544
10682 10682 10683 10683 10683 10683 10683 10684 10684 10684 10684 10683 10683 10683 10682 10682 10681 10680 10679 10678 10677 10676 10674 10673 10671 10670 10669 10667 10666 10665 10663 10662 10661 10659 10658 10657 10656 10654 10653 10652 10650 10648 10647 10645 10643 10641 10639 10637 10635 10633 10631 10629 10626 10625 10622 10620 10618 10616 10613 10611 10610 10609 10605 10603 10602 10600 10597 10594 10591 10588 10583 10579 10577 10575 10572 10568 10563 10559 10554 10551 10548 10545 10543 10541 10540 10538 10536 10536
10679 10679 10680 10680 10680 10680 10680 10680 10681 10681 10681 10680 10680 10680 10679 10678 10678 10677 10676 10675 10674 10673 10671 10670 10669 10668 10667 10666 10664 10663 10662 10661 10660 10659 10658 10657 10655 10654 10653 10651 10649 10647 10646 10644 10642 10640 10638 10636 10634 10631 10629 10627 10624 10622 10620 10618 10615 10613 10611 10608 10605 10603 10601 10598 10597 10595 10593 10590 10586 10583 10578 10572 10567 10563 10561 10559 10554 10550 10545 10541 10538 10536 10535 10535 10533 10532 10530 10528
10676 10676 10677 10677 10677 10678 10678 10678 10678 10678 10678 10677 10677 10677 10676 10675 10675 10674 10673 10672 10671 10670 10670 10669 10668 10667 10666 10665 10664 10663 10662 10661 10660 10659 10658 10656 10655 10654 10652 10651 10649 10647 10645 10643 10641 10639 10637 10634 10631 10629 10627 10624 10622 10620 10617 10615 10612 10610 10607 10604 10601 10598 10595 10593 10590 10587 10585 10583 10580 10577 10573 10566 10559 10553 10549 10548 10544 10540 10536 10532 10529 10528 10528 10529 10528 10526 10524 10520
10673 10673 10674 10674 10675 10675 10675 10675 10675 10675 10675 10675 10674 10674 10673 10673 10672 10672 10671 10671 10670 10669 10669 10668 10668 10667 10666 10665 10664 10663 10662 10661 10660 10659 10658 10657 10655 10654 10652 10650 10648 10646 10644 10641 10639 10637 10634 10631 10629 10627 10624 10622 10619 10617 10614 10611 10608 10606 10603 10600 10596 10593 10590 10587 10584 10580 10577 10574 10572 10568 10564 10558 10552 10545 10539 10535 10531 10529 10529 10526 10523 10523 10523 10523 10521 10518 10515 10511
10671 10671 10672 10672 10672 10672 10673 10673 10673 10673 10673 10673 10673 10672 10672 10672 10671 10671 10671 10670 10670 10670 10670 10669 10668 10667 10666 10666 10665 10664 10663 10661 10660 10659 10658 10656 10655 10653 10651 10649 10646 10644 10641 10639 10636 10634 10632 10629 10627 10624 10622 10619 10616 10614 10611 10607 10604 10601 10598 10595 10591 10588 10586 10583 10578 10574 10569 10565 10563 10558 10552 10546 10541 10537 10531 10523 10519 10520 10523 10522 10518 10516 10515 10513 10510 10506 10502 10498
10669 10670 10670 10670 10671 10671 10671 10672 10672 10672 10672 10672 10672 10672 10672 10672 10672 10671 10671 10671 10671 10671 10670 10669 10668 10667 10666 10666 10665 10664 10663 10662 10660 10659 10657 10656 10654 10652 10650 10647 10645 10642 10640 10637 10634 10632 10629 10626 10624 10620 10618 10615 10611 10609 10606 10603 10600 10596 10593 10590 10586 10580 10577 10576 10572 10567 10562 10555 10551 10548 10539 10530 10527 10524 10520 10515 10513 10516 10517 10515 10512 10508 10504 10501 10497 10492 10488 10483
10668 10669 10669 10670 10670 10671 10671 10671 10672 10672 10672 10672 10672 10673 10673 10673 10673 10673 10673 10672 10672 10671 10670 10670 10669 10668 10667 10666 10665 10664 10663 10661 10660 10658 10656 10655 10653 10650 10648 10645 10643 10640 10637 10634 10631 10628 10625 10622 10619 10616 10613 10610 10607 10604 10601 10597 10594 10591 10587 10584 10581 10574 10567 10564 10562 10559 10556 10549 10539 10535 10526 10515 10511 10509 10506 10506 10506 10510 10509 10505 10501 10496 10492 10488 10484 10479 10473 10467
10668 10669 10670 10670 10671 10671 10672 10672 10672 10672 10673 10673 10674 10674 10674 10674 10674 10674 10673 10673 10672 10671 10671 10670 10669 10668 10667 10666 10665 10664 10662 10661 10659 10658 10655 10653 10651 10649 10646 10643 10640 10637 10634 10630 10627 10624 10621 10617 10614 10611 10608 10605 10601 10598 10594 10590 10587 10584 10580 10575 10572 10569 10561 10553 10551 10548 10546 10543 10533 10525 10515 10500 10495 10495 10495 10497 10497 10497 10496 10491 10485 10480 10477 10474 10470 10466 10460 10453
10669 10670 10671 10672 10673 10673 10674 10674 10674 10674 10674 10675 10675 10676 10675 10675 10675 10675 10674 10673 10672 10672 10671 10670 10669 10668 10667 10666 10665 10664 10662 10660 10658 10656 10654 10651 10649 10646 10643 10640 10636 10633 10630 10626 10622 10619 10616 10612 10608 10605 10602 10598 10595 10591 10587 10583 10579 10575 10571 10567 10562 10560 10555 10546 10540 10536 10533 10532 10525 10518 10506 10488 10481 10483 10485 10487 10486 10484 10481 10475 10470 10464 10460 10458 10456 10453 10447 10440
10671 10672 10673 10674 10675 10675 10676 10676 10676 10676 10677 10677 10677 10677 10677 10676 10676 10675 10674 10673 10673 10672 10671 10670 10669 10668 10667 10666 10665 10663 10661 10659 10657 10654 10651 10648 10645 10642 10639 10636 10632 10629 10625 10621 10617 10613 10610 10606 10602 10598 10594 10591 10587 10583 10580 10576 10572 10567 10562 10558 10552 10548 10546 10540 10531 10523 10519 10517 10513 10508 10498 10481 10471 10471 10471 10474 10472 10468 10465 10462 10458 10452 10446 10442 10441 10439 10434 10426
10673 10674 10675 10676 10677 10677 10678 10678 10678 10678 10678 10678 10678 10678 10678 10677 10677 10675 10675 10674 10673 10672 10671 10670 10669 10668 10666 10665 10663 10661 10659 10657 10654 10651 10648 10645 10642 10638 10635 10631 10627 10623 10619 10615 10611 10607 10603 10599 10595 10591 10587 10584 10580 10575 10571 10566 10563 10559 10554 10549 10544 10537 10534 10532 10526 10516 10507 10502 10499 10495 10487 10473 10465 10461 10456 10456 10456 10451 10446 10444 10442 10440 10434 10428 10425 10424 10420 10413
10676 10676 10677 10678 10679 10679 10679 10679 10679 10679 10680 10679 10679 10679 10679 10678 10677 10676 10675 10675 10674 10673 10671 10670 10669 10667 10665 10663 10661 10659 10657 10654 10651 10648 10645 10641 10638 10634 10630 10626 10622 10617 10613 10609 10605 10601 10597 10593 10589 10585 10580 10576 10572 10567 10562 10557 10551 10547 10543 10538 10533 10527 10520 10517 10516 10511 10502 10492 10485 10482 10476 10465 10458 10455 10445 10436 10436 10436 10430 10424 10421 10420 10418 10413 10408 10405 10402 10398
10678 10678 10679 10680 10680 10680 10680 10680 10681 10681 10681 10680 10680 10680 10679 10678 10677 10677 10676 10675 10674 10672 10671 10669 10668 10666 10664 10661 10659 10656 10653 10650 10647 10644 10641 10637 10633 10629 10625 10620 10617 10612 10607 10603 10598 10594 10590 10586 10581 10577 10573 10568 10564 10559 10554 10549 10543 10536 10532 10526 10521 10516 10510 10504 10500 10497 10493 10485 10475 10469 10464 10456 10448 10446 10439 10425 10419 10419 10416 10409 10404 10401 10399 10394 10388 10383 10380 10378
10680 10680 10680 10681 10681 10681 10682 10682 10682 10682 10681 10681 10681 10680 10679 10679 10678 10677 10676 10674 10673 10671 10670 10668 10665 10663 10661 10658 10655 10652 10649 10646 10642 10639 10635 10631 10627 10624 10619 10614 10610 10605 10600 10595 10591 10587 10582 10578 10574 10570 10566 10561 10555 10551 10545 10540 10534 10528 10522 10516 10510 10504 10498 10492 10485 10480 10477 10472 10465 10455 10449 10445 10438 10432 10428 10418 10408 10402 10397 10392 10388 10383 10380 10375 10369 10363 10358 10356
10681 10681 10682 10682 10683 10683 10683 10683 10683 10682 10682 10682 10682 10681 10680 10679 10678 10676 10675 10673 10672 10670 10668 10665 10663 10660 10657 10654 10651 10648 10645 10641 10637 10634 10630 10626 10622 10618 10613 10608 10603 10598 10594 10589 10584 10580 10576 10571 10566 10561 10557 10552 10547 10541 10535 10528 10523 10517 10511 10505 10499 10492 10486 10480 10473 10467 10462 10458 10450 10441 10433 10430 10427 10420 10414 10408 10399 10390 10384 10376 10369 10364 10359 10354 10349 10343 10337 10334
10683 10683 10684 10684 10684 10684 10684 10684 10684 10683 10683 10683 10682 10681 10680 10679 10677 10675 10674 10672 10670 10668 10665 10663 10660 10658 10655 10651 10648 10644 10640 10637 10633 10630 10625 10621 10617 10612 10607 10602 10597 10592 10586 10582 10577 10572 10568 10563 10557 10552 10546 10540 10535 10530 10524 10518 10513 10507 10501 10496 10490 10483 10476 10469 10462 10455 10450 10446 10437 10428 10420 10414 10414 10412 10401 10393 10387 10379 10373 10365 10356 10349 10342 10336 10331 10324 10318 10314
10685 10686 10686 10686 10686 10686 10685 10685 10685 10684 10684 10683 10682 10681 10679 10677 10676 10674 10672 10669 10667 10664 10662 10659 10656 10653 10650 10647 10644 10640 10637 10633 10630 10625 10621 10616 10612 10607 10602 10596 10591 10585 10580 10575 10570 10564 10559 10554 10548 10543 10537 10531 10525 10520 10514 10509 10504 10498 10492 10486 10478 10471 10466 10459 10452 10444 10439 10434 10424 10415 10408 10398 10399 10402 10393 10381 10373 10367 10361 10352 10343 10337 10330 10324 10317 10309 10303 10300
10687 10687 10687 10687 10687 10687 10686 10686 10685 10684 10684 10682 10681 10679 10678 10676 10673 10671 10669 10667 10664 10662 10659 10656 10653 10650 10647 10644 10641 10638 10634 10630 10626 10622 10617 10612 10607 10601 10595 10589 10582 10575 10570 10564 10559 10555 10549 10544 10539 10535 10530 10525 10518 10511 10505 10500 10495 10489 10483 10478 10471 10463 10457 10450 10442 10433 10429 10425 10414 10404 10397 10386 10382 10385 10381 10371 10362 10355 10349 10340 10332 10326 10319 10313 10307 10299 10293 10288
10689 10689 10689 10688 10688 10687 10687 10686 10685 10684 10683 10681 10680 10678 10676 10673 10672 10670 10667 10665 10662 10659 10656 10653 10650 10647 10644 10640 10637 10633 10629 10625 10620 10615 10610 10605 10599 10593 10586 10581 10574 10568 10561 10555 10549 10546 10542 10538 10533 10528 10524 10520 10513 10505 10497 10490 10485 10480 10472 10466 10463 10458 10452 10446 10437 10427 10420 10416 10407 10397 10390 10380 10371 10368 10365 10358 10350 10341 10335 10329 10323 10317 10310 10303 10295 10289 10283 10277
10690 10690 10689 10689 10688 10687 10686 10685 10684 10683 10681 10680 10678 10676 10674 10672 10670 10668 10665 10662 10659 10656 10653 10649 10646 10643 10639 10635 10631 10628 10623 10619 10614 10609 10604 10599 10595 10590 10585 10581 10576 10571 10566 10558 10550 10542 10537 10531 10525 10521 10516 10512 10508 10502 10494 10484 10475 10469 10461 10453 10448 10445 10444 10441 10434 10425 10417 10412 10403 10389 10382 10375 10363 10356 10350 10342 10335 10327 10319 10314 10310 10306 10301 10295 10286 10278 10272 10265
10690 10690 10689 10688 10688 10686 10686 10684 10683 10681 10680 10678 10676 10674 10672 10670 10667 10665 10662 10659 10656 10653 10649 10646 10642 10638 10634 10631 10627 10623 10619 10614 10610 10606 10601 10597 10593 10588 10583 10578 10574 10569 10564 10558 10551 10541 10533 10527 10520 10514 10510 10504 10500 10497 10492 10485 10473 10462 10454 10445 10436 10427 10424 10425 10421 10415 10411 10410 10401 10383 10373 10368 10358 10349 10340 10329 10322 10315 10307 10301 10296 10293 10288 10282 10277 10269 10262 10254
10690 10689 10689 10688 10687 10686 10684 10683 10681 10680 10678 10676 10675 10673 10670 10667 10664 10662 10659 10656 10653 10649 10646 10641 10638 10634 10630 10626 10622 10618 10615 10610 10607 10603 10598 10594 10589 10584 10579 10574 10569 10564 10559 10553 10547 10538 10528 10523 10517 10509 10504 10498 10491 10486 10480 10473 10465 10455 10444 10435 10424 10412 10402 10398 10396 10390 10386 10390 10391 10375 10362 10356 10348 10340 10330 10318 10310 10302 10296 10290 10283 10277 10271 10264 10261 10256 10250 10243
10690 10689 10688 10687 10686 10685 10683 10681 10680 10679 10677 10676 10674 10670 10667 10664 10662 10660 10656 10653 10649 10645 10641 10637 10634 10630 10626 10623 10619 10615 10612 10607 10603 10599 10596 10591 10586 10582 10577 10572 10567 10562 10556 10550 10544 10535 10522 10512 10506 10499 10492 10487 10480 10472 10465 10458 10449 10442 10434 10424 10414 10403 10391 10382 10378 10371 10360 10360 10366 10360 10350 10341 10333 10327 10316 10303 10298 10291 10282 10277 10269 10261 10256 10249 10244 10240 10235 10229
10690 10689 10688 10687 10685 10684 10682 10681 10679 10678 10676 10674 10670 10666 10664 10663 10660 10657 10653 10649 10645 10641 10638 10634 10631 10627 10624 10620 10617 10613 10609 10605 10601 10596 10593 10588 10584 10579 10574 10569 10564 10558 10553 10546 10540 10534 10522 10506 10497 10490 10482 10477 10472 10461 10451 10444 10437 10430 10423 10413 10405 10396 10385 10372 10365 10361 10350 10345 10347 10343 10338 10330 10317 10310 10302 10289 10285 10279 10268 10260 10253 10246 10239 10231 10226 10222 10217 10212
10689 10688 10687 10686 10685 10683 10682 10680 10678 10677 10674 10670 10666 10665 10664 10661 10657 10653 10649 10646 10642 10638 10635 10631 10628 10625 10621 10618 10615 10611 10607 10602 10599 10594 10590 10586 10581 10576 10570 10565 10559 10552 10546 10540 10533 10528 10521 10506 10492 10485 10478 10472 10467 10457 10444 10434 10425 10419 10412 10403 10395 10389 10381 10367 10353 10345 10337 10333 10333 10329 10326 10319 10302 10290 10285 10276 10268 10262 10252 10244 10237 10231 10223 10214 10210 10205 10200 10194
10689 10688 10687 10685 10684 10683 10681 10678 10677 10675 10670 10666 10665 10665 10662 10658 10653 10649 10646 10642 10639 10635 10632 10629 10626 10623 10620 10617 10613 10609 10605 10601 10597 10593 10588 10583 10577 10572 10566 10560 10554 10547 10540 10534 10527 10521 10516 10506 10490 10479 10474 10468 10461 10451 10441 10430 10419 10409 10401 10391 10382 10375 10371 10365 10348 10332 10321 10315 10312 10311 10312 10308 10290 10274 10269 10263 10253 10246 10240 10233 10225 10217 10210 10202 10196 10190 10183 10178
10688 10687 10686 10685 10684 10681 10679 10677 10675 10670 10667 10666 10666 10662 10658 10654 10650 10646 10643 10640 10636 10633 10630 10627 10624 10622 10619 10616 10612 10608 10604 10600 10596 10591 10585 10580 10574 10567 10561 10554 10548 10541 10533 10527 10521 10513 10507 10501 10488 10474 10465 10461 10454 10444 10436 10429 10418 10407 10396 10385 10375 10364 10357 10354 10344 10326 10309 10298 10291 10289 10295 10294 10276 10262 10256 10248 10239 10231 10222 10216 10207 10196 10188 10182 10176 10170 10165 10162
10687 10686 10685 10684 10682 10680 10678 10675 10671 10668 10668 10667 10663 10658 10654 10651 10647 10644 10641 10638 10635 10632 10629 10626 10624 10621 10617 10613 10610 10606 10602 10597 10592 10587 10581 10576 10570 10563 10556 10550 10542 10534 10527 10519 10513 10506 10498 10492 10484 10471 10460 10453 10445 10435 10426 10419 10409 10400 10392 10382 10374 10365 10354 10347 10342 10328 10308 10291 10279 10272 10279 10281 10261 10246 10240 10230 10221 10213 10200 10191 10183 10172 10163 10157 10152 10148 10146 10144
10687 10685 10684 10682 10680 10678 10675 10672 10670 10669 10667 10663 10658 10655 10651 10648 10645 10642 10639 10636 10634 10631 10628 10626 10622 10619 10615 10611 10607 10603 10598 10594 10588 10583 10577 10571 10565 10559 10552 10545 10537 10529 10521 10513 10505 10499 10491 10483 10474 10465 10455 10446 10437 10426 10417 10409 10399 10390 10381 10373 10364 10356 10346 10336 10332 10327 10312 10294 10276 10262 10264 10264 10244 10227 10222 10214 10205 10196 10183 10173 10165 10156 10147 10140 10135 10132 10128 10123
10686 10684 10683 10681 10679 10676 10673 10671 10669 10667 10663 10659 10656 10653 10649 10646 10644 10641 10638 10635 10633 10630 10627 10624 10620 10616 10612 10608 10604 10599 10594 10589 10584 10579 10573 10566 10560 10554 10547 10539 10532 10523 10515 10508 10499 10491 10484 10476 10467 10457 10447 10437 10426 10416 10409 10402 10393 10384 10374 10365 10355 10346 10338 10327 10316 10311 10305 10292 10275 10262 10260 10255 10233 10213 10204 10198 10191 10182 10170 10161 10151 10142 10134 10127 10123 10119 10113 10105
10684 10683 10681 10679 10677 10675 10672 10670 10668 10664 10660 10657 10654 10651 10648 10646 10643 10640 10638 10635 10632 10629 10626 10622 10618 10614 10610 10606 10602 10597 10591 10585 10580 10574 10568 10561 10555 10548 10541 10533 10525 10517 10509 10501 10492 10482 10474 10466 10458 10451 10447 10440 10428 10415 10407 10398 10389 10381 10372 10362 10353 10341 10331 10320 10305 10294 10288 10277 10262 10253 10254 10250 10229 10208 10195 10184 10176 10167 10156 10146 10134 10126 10123 10119 10113 10105 10095 10088
10683 10682 10680 10678 10676 10673 10671 10668 10665 10662 10659 10656 10652 10650 10647 10645 10642 10639 10637 10634 10631 10628 10624 10620 10616 10613 10609 10604 10599 10595 10589 10583 10577 10570 10564 10557 10550 10543 10536 10528 10520 10512 10504 10496 10486 10475 10465 10455 10444 10435 10431 10431 10424 10413 10404 10395 10382 10371 10360 10350 10341 10330 10318 10307 10294 10282 10274 10267 10252 10236 10235 10237 10223 10205 10194 10182 10169 10159 10149 10137 10125 10116 10114 10111 10104 10093 10081 10074
10683 10681 10679 10677 10674 10672 10670 10667 10663 10660 10657 10654 10651 10649 10646 10644 10642 10639 10636 10633 10630 10626 10622 10618 10615 10611 10606 10602 10596 10591 10586 10579 10572 10566 10559 10552 10545 10538 10530 10523 10516 10507 10499 10490 10481 10470 10459 10449 10436 10421 10410 10404 10397 10387 10380 10374 10365 10355 10344 10334 10325 10316 10306 10293 10281 10269 10258 10255 10249 10227 10214 10220 10215 10198 10186 10175 10164 10154 10143 10130 10120 10113 10106 10100 10092 10081 10071 10065
10682 10680 10678 10676 10674 10671 10669 10665 10662 10659 10656 10653 10651 10648 10646 10643 10641 10638 10635 10631 10628 10624 10620 10617 10613 10608 10603 10598 10592 10586 10580 10575 10568 10561 10554 10547 10541 10534 10526 10518 10511 10503 10494 10485 10476 10466 10456 10446 10434 10419 10406 10396 10387 10376 10367 10360 10352 10343 10334 10324 10315 10305 10294 10279 10267 10256 10243 10239 10242 10226 10202 10196 10197 10188 10174 10162 10153 10143 10130 10118 10113 10108 10100 10090 10081 10072 10063 10056
10681 10679 10678 10676 10673 10670 10667 10664 10661 10658 10655 10652 10650 10647 10645 10642 10639 10636 10633 10630 10626 10623 10619 10615 10611 10606 10601 10595 10589 10582 10576 10570 10564 10557 10550 10542 10535 10529 10521 10514 10505 10497 10489 10480 10471 10461 10452 10443 10434 10420 10406 10397 10387 10375 10366 10357 10348 10338 10328 10317 10307 10298 10287 10273 10258 10244 10230 10222 10223 10219 10200 10183 10178 10175 10162 10148 10138 10129 10116 10106 10104 10101 10092 10082 10074 10066 10058 10049
10680 10679 10678 10675 10672 10669 10666 10663 10660 10657 10654 10652 10649 10647 10644 10641 10638 10635 10632 10628 10625 10621 10618 10614 10609 10604 10599 10594 10589 10583 10576 10568 10560 10554 10547 10540 10532 10523 10516 10508 10500 10491 10483 10474 10465 10456 10447 10438 10431 10420 10405 10394 10384 10372 10362 10355 10344 10333 10323 10313 10303 10293 10280 10267 10251 10234 10222 10213 10204 10201 10193 10175 10161 10155 10147 10134 10122 10112 10101 10095 10095 10092 10083 10074 10066 10059 10052 10044
10681 10679 10676 10674 10671 10668 10665 10662 10659 10656 10654 10651 10649 10646 10644 10641 10638 10634 10631 10627 10624 10620 10616 10611 10606 10601 10597 10592 10587 10582 10576 10570 10562 10553 10545 10538 10530 10521 10512 10503 10495 10486 10476 10467 10458 10450 10443 10434 10427 10418 10403 10389 10379 10367 10357 10350 10340 10329 10319 10308 10301 10291 10275 10261 10247 10232 10223 10215 10200 10188 10181 10169 10152 10140 10133 10124 10113 10100 10088 10086 10087 10082 10074 10066 10059 10051 10044 10036
10681 10678 10675 10673 10670 10667 10664 10661 10658 10656 10653 10651 10649 10646 10643 10640 10637 10633 10630 10626 10622 10618 10614 10609 10604 10599 10594 10589 10584 10578 10572 10566 10559 10552 10543 10535 10526 10518 10509 10499 10489 10480 10470 10461 10453 10445 10438 10430 10421 10414 10403 10389 10376 10363 10352 10345 10335 10323 10314 10306 10299 10291 10277 10260 10243 10229 10222 10215 10202 10185 10172 10163 10150 10134 10123 10113 10101 10087 10075 10074 10076 10071 10063 10057 10051 10043 10035 10028
10679 10677 10674 10672 10669 10666 10663 10660 10657 10655 10653 10651 10648 10645 10642 10639 10636 10632 10629 10625 10621 10616 10611 10606 10602 10597 10591 10586 10579 10573 10566 10559 10553 10546 10538 10531 10522 10513 10504 10495 10485 10476 10466 10457 10449 10441 10434 10426 10418 10411 10402 10390 10377 10362 10350 10341 10332 10319 10308 10302 10296 10288 10277 10259 10234 10217 10208 10199 10190 10178 10160 10146 10134 10121 10112 10103 10090 10077 10067 10065 10067 10063 10055 10050 10044 10038 10031 10022
10678 10676 10673 10671 10668 10665 10662 10660 10657 10655 10653 10650 10647 10644 10641 10638 10635 10631 10628 10623 10618 10614 10609 10605 10600 10594 10588 10582 10575 10568 10562 10555 10548 10540 10532 10525 10516 10506 10497 10488 10480 10471 10462 10453 10444 10436 10428 10419 10410 10402 10394 10385 10374 10361 10346 10333 10327 10319 10305 10295 10289 10279 10272 10257 10228 10206 10196 10182 10169 10161 10149 10138 10127 10115 10107 10101 10087 10072 10062 10060 10061 10057 10051 10046 10039 10033 10027 10019